Topeka Forbes, KS

8:15 AM CDT on October 20, 2017 (GMT -0500)
Forbes

Weather History for KFOE - November, 2013

Change the Weather History Date:

Wednesday, November 20, 2013

  Actual Average Record
Temperature  
Mean Temperature 48 °F -  
Max Temperature 54 °F 52 °F 75 °F (2003)
Min Temperature 42 °F 29 °F 14 °F (1964)
Degree Days  
Heating Degree Days 17    
Moisture  
Dew Point 32 °F    
Average Humidity 55    
Maximum Humidity 76    
Minimum Humidity 32    
Precipitation  
Precipitation 0.20 in - - ()
Sea Level Pressure  
Sea Level Pressure 29.89 in    
Wind  
Wind Speed 14 mph (SSE)    
Max Wind Speed 23 mph    
Max Gust Speed 32 mph    
Visibility 10 miles    
Events Rain , Thunderstorm    
Averages and records for this station are not official NWS values.
T = Trace of Precipitation, MM = Missing Value Source: NWS Daily Summary

Daily Weather History Graph

Daily Weather History Graph

Search for Another Location

Airport or City:

Trip Planner

Search our weather history database for the weather conditions in past years. The results will help you decide how hot, cold, wet, or windy it might be!

Date:

Astronomy

Nov. 20, 2013 Rise Set
Actual Time 7:11 AM CST 5:05 PM CST
Civil Twilight 6:42 AM CST 5:34 PM CST
Nautical Twilight 6:09 AM CST 6:06 PM CST
Astronomical Twilight 5:38 AM CST 6:38 PM CST
Moon 7:48 PM CST 9:37 AM CST
Length of Visible Light 10h 51m
Length of Day
9h 53m
Waning Gibbous, 91% of the Moon is Illuminated
Nov 20
Waning Gibbous
Nov 25
Last Quarter
Dec 2
New
Dec 9
First Quarter
Dec 17
Full

Hourly Weather History & Observations

Time (CST) Temp. Windchill Dew Point Humidity Pressure Visibility Wind Dir Wind Speed Gust Speed Precip Events Conditions
12:53 AM 52.0 °F - 23.0 °F 32% 29.92 in 10.0 mi SSE 18.4 mph 27.6 mph N/A   Overcast
1:53 AM 52.0 °F - 23.0 °F 32% 29.91 in 10.0 mi SSE 17.3 mph 28.8 mph N/A   Overcast
2:53 AM 52.0 °F - 23.0 °F 32% 29.90 in 10.0 mi SSE 18.4 mph 26.5 mph N/A   Overcast
3:53 AM 52.0 °F - 23.0 °F 32% 29.86 in 10.0 mi SSE 20.7 mph 27.6 mph N/A   Mostly Cloudy
4:40 AM 51.1 °F - 21.9 °F 32% 29.84 in 10.0 mi South 23.0 mph 32.2 mph N/A Thunderstorm Mostly Cloudy
4:50 AM 50.0 °F - 23.0 °F 35% 29.85 in 9.0 mi South 23.0 mph 31.1 mph N/A Thunderstorm Thunderstorm
4:53 AM 48.0 °F - 28.0 °F 46% 29.85 in 6.0 mi SSE 21.9 mph 31.1 mph 0.05 in Rain , Thunderstorm Thunderstorms and Rain
5:18 AM 46.9 °F - 30.9 °F 54% 29.88 in 10.0 mi South 11.5 mph - 0.02 in   Overcast
5:26 AM 46.9 °F - 30.0 °F 52% 29.89 in 10.0 mi SSE 6.9 mph 17.3 mph 0.02 in Thunderstorm Overcast
5:53 AM 48.0 °F - 28.0 °F 46% 29.91 in 10.0 mi Variable 4.6 mph - 0.02 in Thunderstorm Overcast
6:39 AM 46.0 °F 41.4 °F 30.0 °F 54% 29.91 in 10.0 mi SE 9.2 mph - 0.00 in Rain , Thunderstorm Light Thunderstorms and Rain
6:53 AM 45.0 °F 40.6 °F 32.0 °F 60% 29.92 in 10.0 mi SE 8.1 mph - 0.01 in Rain , Thunderstorm Light Thunderstorms and Rain
7:16 AM 43.0 °F 37.7 °F 34.0 °F 71% 29.91 in 10.0 mi SE 9.2 mph - 0.09 in Rain , Thunderstorm Light Rain
7:27 AM 42.1 °F 37.1 °F 34.0 °F 73% 29.92 in 8.0 mi SE 8.1 mph - 0.11 in Rain Rain
7:53 AM 42.1 °F 36.6 °F 35.1 °F 76% 29.92 in 10.0 mi SE 9.2 mph - 0.11 in Rain Light Rain
8:53 AM 44.1 °F 38.6 °F 35.1 °F 71% 29.92 in 10.0 mi SE 10.4 mph - 0.01 in   Overcast
9:53 AM 46.9 °F - 36.0 °F 66% 29.91 in 10.0 mi SE 10.4 mph - N/A   Overcast
10:53 AM 48.9 °F - 34.0 °F 56% 29.90 in 10.0 mi SSE 19.6 mph 25.3 mph N/A   Overcast
11:53 AM 48.9 °F - 35.1 °F 59% 29.87 in 10.0 mi SSE 16.1 mph - N/A   Overcast
12:53 PM 51.1 °F - 36.0 °F 56% 29.85 in 10.0 mi South 13.8 mph - N/A   Overcast
1:53 PM 53.1 °F - 35.1 °F 50% 29.83 in 10.0 mi SSE 16.1 mph 24.2 mph N/A   Scattered Clouds
2:53 PM 54.0 °F - 35.1 °F 49% 29.82 in 10.0 mi SSE 16.1 mph - N/A   Clear
3:53 PM 54.0 °F - 34.0 °F 47% 29.83 in 10.0 mi South 13.8 mph 20.7 mph N/A   Clear
4:53 PM 50.0 °F - 35.1 °F 57% 29.86 in 10.0 mi SSE 9.2 mph - N/A   Clear
5:53 PM 48.0 °F - 35.1 °F 61% 29.88 in 10.0 mi SSE 8.1 mph - N/A   Clear
6:53 PM 46.9 °F - 35.1 °F 63% 29.89 in 10.0 mi SE 8.1 mph - N/A   Clear
7:53 PM 46.0 °F 41.9 °F 35.1 °F 66% 29.90 in 10.0 mi SE 8.1 mph - N/A   Clear
8:53 PM 45.0 °F 41.2 °F 35.1 °F 68% 29.91 in 10.0 mi SSE 6.9 mph - N/A   Clear
9:53 PM 45.0 °F 42.6 °F 36.0 °F 71% 29.93 in 10.0 mi SE 4.6 mph - N/A   Clear
10:53 PM 43.0 °F 40.3 °F 35.1 °F 74% 29.93 in 10.0 mi SE 4.6 mph - N/A   Clear
11:53 PM 44.1 °F 40.8 °F 37.0 °F 76% 29.95 in 10.0 mi SE 5.8 mph - N/A   Clear